Location: Newark
(49.3000°N, 9.4667°E)
Time: 03:51:00
(UTC+00:00)

Tiros 1 - Pass Details

Date: 01 June 2019
Orbit: 631 x 664 km, 48.4° (Epoch: 17 June)

Event Time Altitude Azimuth Distance (km) Brightness Sun altitude
Rises 05:37:47 0° 194° (SSW) 2,904 10.3 19.3°
Reaches altitude 10° 05:41:03 10° 170° (S) 2,002 9.7 19.9°
Maximum altitude 05:43:30 14° 137° (SE) 1,738 9.9 20.3°
Drops below altitude 10° 05:45:56 10° 105° (ESE) 2,012 11.0 20.7°
Sets 05:49:14 0° 81° (E) 2,929 12.1 21.2°
